This is the latest recevied weather packets stored in our database for station/object AC1IX. If no packets are shown the sender has not sent any weather packets the latest 10 day(s).
| Time | Temp. | Humidity | Pressure | Rain* | Wind** | Luminosity | Snow |
|---|---|---|---|---|---|---|---|
| 1777675194 | 12.22° C | 47% | 1010.9 hPa | 0 mm | - | 42 W/m² | - |
| 1777674890 | 12.22° C | 48% | 1011.1 hPa | 0 mm | - | 39 W/m² | - |
| 1777674585 | 12.22° C | 46% | 1010.9 hPa | 0 mm | - | 36 W/m² | - |
| 1777674284 | 12.78° C | 45% | 1010.9 hPa | 0 mm | - | 39 W/m² | - |
| 1777673979 | 12.22° C | 45% | 1010.7 hPa | 0 mm | - | 68 W/m² | - |
| 1777673676 | 12.22° C | 47% | 1010.6 hPa | 0 mm | - | 68 W/m² | - |
| 1777673374 | 12.22° C | 45% | 1010.9 hPa | 0 mm | - | 46 W/m² | - |
| 1777673072 | 12.78° C | 43% | 1011 hPa | 0 mm | - | 45 W/m² | - |
| 1777672767 | 13.33° C | 43% | 1010.7 hPa | 0 mm | - | 66 W/m² | - |
| 1777672464 | 13.33° C | 44% | 1010.9 hPa | 0 mm | - | 78 W/m² | - |
| 1777672160 | 13.33° C | 42% | 1010.5 hPa | 0 mm | - | 122 W/m² | - |
| 1777671855 | 13.89° C | 41% | 1010.7 hPa | 0 mm | - | 66 W/m² | - |
| 1777671551 | 13.89° C | 40% | 1010.9 hPa | 0 mm | - | 130 W/m² | - |
| 1777671248 | 13.89° C | 41% | 1011 hPa | 0 mm | - | 166 W/m² | - |
| 1777670943 | 13.89° C | 39% | 1010.9 hPa | 0 mm | - | 199 W/m² | - |
| 1777670640 | 13.89° C | 40% | 1010.9 hPa | 0 mm | - | 271 W/m² | - |
| 1777670337 | 14.44° C | 38% | 1010.9 hPa | 0 mm | - | 282 W/m² | - |
| 1777670034 | 15° C | 40% | 1010.9 hPa | 0 mm | - | 289 W/m² | - |
| 1777669732 | 14.44° C | 38% | 1010.9 hPa | 0 mm | - | 297 W/m² | - |
| 1777669429 | 14.44° C | 40% | 1010.7 hPa | 0 mm | - | 314 W/m² | - |
| 1777669125 | 14.44° C | 38% | 1010.9 hPa | 0 mm | - | 332 W/m² | - |
| 1777668822 | 14.44° C | 38% | 1010.7 hPa | 0 mm | - | 363 W/m² | - |
| 1777668519 | 14.44° C | 38% | 1010.6 hPa | 0 mm | - | 363 W/m² | - |
| 1777668215 | 13.89° C | 40% | 1010.6 hPa | 0 mm | - | 120 W/m² | - |
| 1777667911 | 14.44° C | 39% | 1010.7 hPa | 0 mm | - | 104 W/m² | - |
* Rain latest hour (hover to see other rain measurements)
** Current wind speed in m/s (hover to see current wind gust speed)